Regional Weather Roundup
Issued by NWS

Home | Current Version | Previous Version | Text Only | Print | Product List | Glossary On
Versions: 1 2 3 4 5 6 7 8 9 10 11 12 13 14 15 16 17 18 19 20 21 22 23 24 25 26 27 28 29 30 31 32 33 34 35 36 37 38 39 40 41 42 43 44 45 46 47 48 49 50
000
ASUS44 KBMX 060310
RWRAL

ALABAMA REGIONAL WEATHER ROUNDUP
NATIONAL WEATHER SERVICE BIRMINGHAM AL
900 PM CST THU MAR 05 2015

NOTE: "FAIR" INDICATES FEW OR NO CLOUDS BELOW 12,000 FEET
WITH NO SIGNIFICANT WEATHER AND/OR OBSTRUCTIONS TO VISIBILITY.

THE REMARK "TC" DENOTES TEMPERATURE IN DEGREES CELSIUS.

ALZ001>011-014-016>018-020-060400-
NORTH ALABAMA

CITY           SKY/WX    TMP DP  RH WIND       PRES   REMARKS
MUSCLE SHOALS  CLEAR     25  14  63 N8        30.52R WCI  16
HUNTSVILLE     PTCLDY    24  16  71 N14       30.49R WCI  12
DECATUR        CLEAR     23  17  78 N10       30.50R WCI  12
HALEYVILLE       N/A     21  16  81 N8        30.48R WCI  11
GADSDEN        CLOUDY   N/A N/A N/A N13       30.41R
$$

ALZ012-013-022-023-030>036-040>044-060400-
WEST CENTRAL ALABAMA

CITY           SKY/WX    TMP DP  RH WIND       PRES   REMARKS
TUSCALOOSA     PTCLDY    28  21  75 N7        30.49R WCI  21
$$

ALZ015-024>027-033>036-040>044-060400-
CENTRAL ALABAMA

CITY           SKY/WX    TMP DP  RH WIND       PRES   REMARKS
BIRMINGHAM     CLOUDY    26  21  81 N14       30.45R WCI  14
MONTGOMERY     MOCLDY    34  25  69 N15G22    30.39R WCI  24
SHELBY CO ARPT MOCLDY    28  20  71 N8G21     30.42R WCI  20
MAXWELL AFB    PTCLDY    33  27  77 N14       30.39R WCI  23
GREENVILLE     FAIR      34  26  72 N12G22    30.36R WCI  25
$$

ALZ019-021-028-029-037-038-045>048-060400-
EAST CENTRAL ALABAMA

CITY           SKY/WX    TMP DP  RH WIND       PRES   REMARKS
ANNISTON       CLOUDY    29  21  72 N12       30.40R WCI  19
ALEXANDER CITY CLOUDY    34  26  72 N13G23    30.36R WCI  25
AUBURN         MOCLDY    30  25  80 N12G23    30.34R WCI  21
$$

ALZ051>064-060400-
SOUTHWEST ALABAMA

CITY           SKY/WX    TMP DP  RH WIND       PRES   REMARKS
MOBILE         CLOUDY    34  27  75 N16       30.40R WCI  24
BROOKLEY FIELD CLOUDY    37  28  70 N24G30    30.40R WCI  26
EVERGREEN      CLOUDY    35  28  75 N10G21    30.38R WCI  27
$$

ALZ049-050-065>069-060400-
SOUTHEAST ALABAMA

CITY           SKY/WX    TMP DP  RH WIND       PRES   REMARKS
DOTHAN         PTCLDY    39  33  79 N15G22    30.32R WCI  31
OZARK          PTCLDY    38  30  72 NW6       30.31R WCI  34
TROY           MOCLDY    36  28  73 N14G22    30.34R WCI  27
EUFAULA        MOCLDY    39  31  72 VRB7      30.30R WCI  34
$$


USA.gov is the U.S. government's official web portal to all federal, state and local government web resources and services.